Flag for Macedonia, Republic of Weather past 2 weeks in Kumanovo, Macedonia, Republic of

48 °F


Feels Like: 48 °F
Forecast: 22 / 49 °F
Wind: No wind

Location: Skopje-Petrovec

Current Time: Nov 30, 2015 at 3:13:45 PM

Latest Report: Nov 30, 2015 at 2:30 PM

Visibility: 10 mi

Pressure: 30.21 "Hg

Humidity: 43%

Dew point: 27 °F

Location of KumanovoLocation

Historic Weather in Kumanovo — Graph


Kumanovo temperature yesterday

Maximum temperature yesterday: 50 °F (at 12:30 PM)
Minimum temperature yesterday: 30 °F (at 9:30 PM)
Average temperature yesterday: 40 °F

Past Weeks' High & Low Weather Summary

High68 °F (Nov 17, 2:00 PM)100% (Nov 18, 7:00 AM)30.33 "Hg (Nov 18, 7:00 AM)
Low25 °F (Nov 30, 3:00 AM)34% (Nov 15, 2:00 PM)29.36 "Hg (Nov 21, 10:00 PM)
Average45 °F80%29.95 "Hg
* Reported Nov 15 2:00 PM — Nov 30 2:00 PM, Kumanovo, Weather by CustomWeather, © 2015

Note: Actual official high and low records may vary slightly from our data, if they occured in-between our weather recording intervals... More about our weather records


Kumanovo weather history for previous 24 hours

Time TempWeatherWind HumidityBarometerVisibility
2:00 PM
Mon, Nov 30
50 °FSunny.No wind37%30.21 "Hg10 mi
1:30 PM48 °FSunny.No wind46%30.24 "Hg10 mi
1:00 PM46 °FSunny.No wind53%30.24 "Hg10 mi
12:30 PM46 °FSunny.No wind53%30.27 "Hg10 mi
11:30 AM41 °FSunny.No wind66%30.27 "Hg10 mi
11:00 AM39 °FSunny.No wind70%30.30 "Hg10 mi
10:30 AM37 °FSunny.No wind75%30.30 "Hg10 mi
10:00 AM36 °FSunny.No wind81%30.30 "Hg10 mi
9:30 AM34 °FSunny.No wind81%30.33 "Hg10 mi
9:00 AM32 °FSunny.No wind87%30.33 "Hg10 mi
8:00 AM28 °FSunny.No wind86%30.30 "Hg10 mi
7:30 AM27 °FSunny.1 mph93%30.33 "Hg10 mi
7:00 AM27 °FSunny.2 mph86%30.30 "Hg10 mi
6:30 AM25 °FClear.1 mph93%30.30 "Hg10 mi
6:00 AM25 °FClear.2 mph93%30.30 "Hg10 mi
5:00 AM25 °FClear.1 mph93%30.27 "Hg10 mi
4:30 AM25 °FClear.2 mph93%30.27 "Hg10 mi
4:00 AM25 °FClear.1 mph93%30.27 "Hg10 mi
3:30 AM27 °FClear.1 mph86%30.27 "Hg10 mi
3:00 AM25 °FClear.2 mph93%30.27 "Hg10 mi
2:00 AM28 °FClear.3 mph93%30.27 "Hg10 mi
1:00 AM27 °FClear.No wind93%30.27 "Hg10 mi
12:00 AM28 °FClear.2 mph93%30.27 "Hg10 mi
11:30 PM
Sun, Nov 29
30 °FClear.1 mph86%30.27 "Hg10 mi
11:00 PM30 °FClear.2 mph86%30.27 "Hg10 mi
10:30 PM30 °FClear.2 mph80%30.27 "Hg10 mi
10:00 PM32 °FClear.2 mph80%30.27 "Hg10 mi
9:30 PM30 °FClear.3 mph86%30.27 "Hg10 mi
9:00 PM32 °FClear.1 mph80%30.27 "Hg10 mi
8:30 PM34 °FClear.2 mph75%30.27 "Hg10 mi
8:00 PM34 °FClear.2 mph75%30.24 "Hg10 mi
7:30 PM37 °FClear.2 mph65%30.24 "Hg10 mi
7:00 PM37 °FClear.6 mph65%30.24 "Hg10 mi
6:30 PM36 °FClear.2 mph75%30.24 "Hg10 mi
6:00 PM39 °FPassing clouds.2 mph61%30.24 "HgN/A
5:30 PM43 °FPassing clouds.5 mph49%30.24 "HgN/A
5:00 PM45 °FPassing clouds.6 mph46%30.24 "HgN/A
4:30 PM45 °FPassing clouds.7 mph42%30.21 "HgN/A
4:00 PM45 °FScattered clouds.7 mph46%30.21 "HgN/A
3:30 PM45 °FPartly sunny.7 mph49%30.21 "HgN/A
3:00 PM46 °FPartly sunny.6 mph50%30.21 "HgN/A
Weather by CustomWeather, © 2015

See weather overviewHow to use our weather pages